Date String (YYYY-MM-DD hh:mm:ss) UTC,Instrument flags,Ambient pressure (hPa),Sample flow (lpm),Bypass flow (lpm),Sample temperature (°C),Ambient temperature (°C),ASC tube jacket temperature (°C),LED temperature (°C),Box temperature (°C),Sample RH (%),Span deviation,Mass concentration (μg/m³),Mass concentration (μg/m³),Mass concentration (μg/m³)
DateTimeUTC,F1_M11,P_M11,Q1_M11,Q2_M11,T1_M11,T2_M11,T3_M11,T4_M11,T5_M11,U1_M11,ZSPAN_M11,X0_M11,X2_M11,X1_M11
2023-03-04 11:00:00,,0819.9,4.99,0.00,22.7,21.8,00.0,31.4,24.4,14.9,-000.4,0012.26,0010.33,0010.09
2023-03-04 11:01:00,,0820.0,5.00,0.00,22.7,21.5,00.0,31.4,24.3,15.2,-000.2,0012.15,0010.25,0010.02
2023-03-04 11:02:00,,0820.0,5.00,0.00,22.6,21.3,00.0,31.4,24.3,15.3,-000.6,0012.11,0010.22,0009.98
2023-03-04 11:03:00,,0820.1,4.98,0.00,22.6,21.0,00.0,31.4,24.2,15.4,-000.6,0011.93,0010.15,0009.93
2023-03-04 11:04:00,,0820.1,5.00,0.00,22.6,20.9,00.0,31.4,24.2,15.5,-000.9,0011.73,0010.06,0009.89
2023-03-04 11:05:00,,0820.1,5.01,0.00,22.6,20.8,00.0,31.4,24.2,15.5,-001.2,0011.64,0010.05,0009.90
2023-03-04 11:06:00,,0820.2,5.01,0.00,22.5,20.7,00.0,31.3,24.1,15.4,-001.4,0011.53,0010.05,0009.93
2023-03-04 11:07:00,,0820.2,5.02,0.00,22.5,20.5,00.0,31.3,24.0,15.4,-001.4,0011.59,0010.13,0009.99
2023-03-04 11:08:00,,0820.2,5.01,0.00,22.4,20.5,00.0,31.3,24.0,15.4,-001.2,0011.90,0010.37,0010.19
2023-03-04 11:09:00,,0820.2,5.00,0.00,22.5,21.5,00.0,31.3,24.2,15.4,-001.1,0012.20,0010.62,0010.42
2023-03-04 11:10:00,,0820.2,5.01,0.00,22.6,22.6,00.0,31.3,24.5,15.3,-001.0,0012.47,0010.83,0010.62
2023-03-04 11:11:00,,0820.2,4.99,0.00,22.7,22.9,00.0,31.3,24.6,15.3,-001.4,0012.68,0011.01,0010.80
2023-03-04 11:12:00,,0820.1,4.99,0.00,22.7,22.4,00.0,31.3,24.5,15.4,-001.3,0012.76,0011.10,0010.88
2023-03-04 11:13:00,,0820.1,4.98,0.00,22.7,21.9,00.0,31.3,24.3,15.5,-001.1,0012.77,0011.13,0010.92
2023-03-04 11:14:00,,0820.1,5.01,0.00,22.6,21.5,00.0,31.3,24.3,15.6,-001.2,0012.80,0011.15,0010.95
2023-03-04 11:15:00,,0820.2,5.00,0.00,22.6,21.2,00.0,31.3,24.2,15.6,-001.3,0012.92,0011.24,0011.02
2023-03-04 11:16:00,,0820.2,4.99,0.00,22.5,20.9,00.0,31.3,24.1,15.7,-001.4,0013.00,0011.30,0011.05
2023-03-04 11:17:00,,0820.2,5.00,0.00,22.5,20.7,00.0,31.3,24.0,15.8,-001.5,0013.03,0011.32,0011.06
2023-03-04 11:18:00,,0820.2,5.00,0.00,22.4,20.5,00.0,31.3,24.0,15.9,-001.4,0012.92,0011.25,0011.02
2023-03-04 11:19:00,,0820.3,5.01,0.00,22.4,20.4,00.0,31.3,23.9,16.0,-001.5,0012.81,0011.17,0010.95
2023-03-04 11:20:00,,0820.2,4.98,0.00,22.3,20.3,00.0,31.2,23.9,16.1,-001.6,0012.69,0011.12,0010.90
2023-03-04 11:21:00,,0820.3,5.01,0.00,22.3,20.2,00.0,31.2,23.9,16.1,-001.8,0012.52,0011.06,0010.85
2023-03-04 11:22:00,,0820.3,4.99,0.00,22.3,20.1,00.0,31.2,23.9,16.2,-001.7,0012.43,0011.01,0010.80
2023-03-04 11:23:00,,0820.4,5.00,0.00,22.2,20.1,00.0,31.1,23.8,16.1,-001.8,0012.40,0010.99,0010.79
2023-03-04 11:24:00,,0820.5,4.99,0.00,22.2,20.7,00.0,31.1,23.9,16.2,-001.9,0012.47,0011.04,0010.84
2023-03-04 11:25:00,,0820.6,4.97,0.00,22.3,21.9,00.0,31.1,24.1,16.1,-001.3,0012.56,0011.12,0010.92
2023-03-04 11:26:00,,0820.6,5.00,0.00,22.4,22.8,00.0,31.1,24.3,16.0,-000.7,0012.53,0011.12,0010.94
2023-03-04 11:27:00,,0820.4,5.01,0.00,22.5,22.6,00.0,31.2,24.3,16.0,-000.4,0012.55,0011.12,0010.95
2023-03-04 11:28:00,,0820.3,5.02,0.00,22.5,22.1,00.0,31.2,24.3,16.0,-000.4,0012.50,0011.08,0010.92
2023-03-04 11:29:00,,0820.3,4.98,0.00,22.5,21.7,00.0,31.2,24.2,16.0,-000.3,0012.39,0010.98,0010.84
2023-03-04 11:30:00,,0820.3,4.99,0.00,22.4,21.3,00.0,31.2,24.1,16.0,-000.6,0012.21,0010.83,0010.71
2023-03-04 11:31:00,,0820.3,4.99,0.00,22.4,20.9,00.0,31.2,24.0,16.0,-000.8,0012.04,0010.67,0010.57
2023-03-04 11:32:00,,0820.4,4.99,0.00,22.3,20.6,00.0,31.2,23.9,16.1,-000.8,0011.95,0010.55,0010.47
2023-03-04 11:33:00,,0820.4,5.00,0.00,22.3,20.4,00.0,31.2,23.8,16.1,-001.0,0012.09,0010.45,0010.36
2023-03-04 11:34:00,,0820.5,5.01,0.00,22.3,20.3,00.0,31.1,23.8,16.1,-001.2,0012.09,0010.38,0010.26
2023-03-04 11:35:00,,0820.5,4.99,0.00,22.2,20.2,00.0,31.1,23.8,16.2,-001.2,0012.00,0010.23,0010.10
2023-03-04 11:36:00,,0820.6,5.00,0.00,22.2,20.2,00.0,31.1,23.7,16.2,-001.9,0011.85,0010.03,0009.90
2023-03-04 11:37:00,,0820.6,5.00,0.00,22.1,20.1,00.0,31.0,23.7,16.2,-002.3,0011.66,0009.84,0009.70
2023-03-04 11:38:00,,0820.6,5.00,0.00,22.1,20.0,00.0,31.0,23.7,16.2,-002.4,0011.53,0009.70,0009.57
2023-03-04 11:39:00,,0820.5,5.02,0.00,22.1,20.0,00.0,31.0,23.7,16.2,-002.3,0011.40,0009.59,0009.46
2023-03-04 11:40:00,,0820.5,5.00,0.00,22.1,20.7,00.0,31.0,23.8,16.2,-002.2,0011.42,0009.57,0009.43
2023-03-04 11:41:00,,0820.5,5.02,0.00,22.2,22.0,00.0,31.0,24.1,16.2,-002.1,0011.49,0009.61,0009.46
2023-03-04 11:42:00,,0820.4,5.05,0.00,22.3,22.9,00.0,31.0,24.3,16.1,-002.0,0011.59,0009.65,0009.49
2023-03-04 11:43:00,,0820.4,5.01,0.00,22.4,22.6,00.0,31.0,24.3,16.0,-001.9,0011.63,0009.68,0009.51
2023-03-04 11:44:00,,0820.4,5.00,0.00,22.4,22.0,00.0,31.0,24.1,16.0,-002.1,0011.48,0009.68,0009.52
2023-03-04 11:45:00,,0820.4,5.00,0.00,22.3,21.5,00.0,31.0,24.0,16.0,-002.2,0011.46,0009.72,0009.54
2023-03-04 11:46:00,,0820.5,5.00,0.00,22.3,21.2,00.0,31.0,23.9,16.1,-002.1,0011.43,0009.73,0009.55
2023-03-04 11:47:00,,0820.5,5.00,0.00,22.3,21.0,00.0,31.0,23.9,16.1,-002.0,0011.51,0009.76,0009.57
2023-03-04 11:48:00,,0820.4,5.00,0.00,22.2,20.8,00.0,31.0,23.9,16.0,-002.3,0011.56,0009.77,0009.58
2023-03-04 11:49:00,,0820.4,5.00,0.00,22.2,20.7,00.0,31.0,23.9,16.0,-002.2,0011.59,0009.79,0009.58
2023-03-04 11:50:00,,0820.4,5.01,0.00,22.2,20.6,00.0,31.0,23.8,15.9,-002.0,0011.64,0009.81,0009.59
2023-03-04 11:51:00,,0820.5,4.99,0.00,22.2,20.5,00.0,31.0,23.8,15.9,-002.1,0011.70,0009.83,0009.59
2023-03-04 11:52:00,,0820.6,5.00,0.00,22.2,20.4,00.0,31.0,23.8,15.9,-001.9,0011.74,0009.86,0009.61
2023-03-04 11:53:00,,0820.6,5.01,0.00,22.1,20.4,00.0,31.0,23.8,15.9,-001.7,0011.74,0009.89,0009.64
2023-03-04 11:54:00,,0820.6,5.00,0.00,22.1,20.3,00.0,31.0,23.7,15.9,-001.9,0011.79,0009.91,0009.66
2023-03-04 11:55:00,,0820.6,4.99,0.00,22.1,20.2,00.0,31.0,23.7,15.9,-001.4,0011.97,0009.93,0009.68
2023-03-04 11:56:00,,0820.6,5.00,0.00,22.1,20.1,00.0,31.0,23.7,15.9,-001.3,0011.98,0009.93,0009.70
2023-03-04 11:57:00,,0820.6,5.01,0.00,22.0,20.0,00.0,30.9,23.6,15.9,-000.9,0012.02,0009.94,0009.71
2023-03-04 11:58:00,,0820.6,5.00,0.00,22.0,20.5,00.0,30.9,23.7,15.9,-000.8,0011.91,0009.90,0009.69
2023-03-04 11:59:00,,0820.7,4.98,0.00,22.1,21.7,00.0,30.9,24.0,15.9,-000.4,0011.94,0009.90,0009.68
